Overview Statistics Trail Chart Weather Telemetry Raw packets
 

This is the latest recevied weather packets stored in our database for station/object K5FEP. If no packets are shown the sender has not sent any weather packets the latest 10 day(s).

<< 53 54 55 56 57 58 59 >>
Time Temp. Humidity Pressure Rain* Wind** Luminosity Snow
1788279554 34.44° C 40% 1017.5 hPa 0 mm - 873 W/m² -
1788279253 34.44° C 43% 1017.6 hPa 0 mm - 867 W/m² -
1788278949 34.44° C 44% 1017.8 hPa 0 mm - 864 W/m² -
1788278645 35° C 45% 1017.7 hPa 0 mm - 856 W/m² -
1788278344 34.44° C 45% 1018.1 hPa 0 mm - 843 W/m² -
1788278044 34.44° C 45% 1017.9 hPa 0 mm - 832 W/m² -
1788277741 34.44° C 45% 1018 hPa 0 mm - 827 W/m² -
1788277440 35° C 45% 1018.1 hPa 0 mm - 814 W/m² -
1788277134 34.44° C 45% 1018.1 hPa 0 mm - 808 W/m² -
1788276829 34.44° C 44% 1018.1 hPa 0 mm - 804 W/m² -
1788276528 33.89° C 47% 1018.2 hPa 0 mm - 787 W/m² -
1788276223 33.89° C 47% 1018.2 hPa 0 mm - 777 W/m² -
1788275918 33.33° C 50% 1018.2 hPa 0 mm - 765 W/m² -
1788275618 33.33° C 52% 1018.3 hPa 0 mm - 752 W/m² -
1788275317 33.33° C 51% 1018.5 hPa 0 mm - 742 W/m² -
1788275015 32.78° C 51% 1018.5 hPa 0 mm - 725 W/m² -
1788274713 32.78° C 51% 1018.4 hPa 0 mm - 711 W/m² -
1788274413 32.78° C 53% 1018.6 hPa 0 mm - 699 W/m² -
1788274108 32.22° C 55% 1018.6 hPa 0 mm - 685 W/m² -
1788273803 31.67° C 57% 1018.6 hPa 0 mm - 668 W/m² -
1788273499 31.67° C 58% 1018.7 hPa 0 mm - 656 W/m² -
1788273195 31.11° C 60% 1018.6 hPa 0 mm - 644 W/m² -
1788272892 31.11° C 61% 1018.8 hPa 0 mm - 624 W/m² -
1788272590 31.11° C 62% 1018.6 hPa 0 mm - 605 W/m² -
1788272286 30.56° C 63% 1018.6 hPa 0 mm - 589 W/m² -

* Rain latest hour (hover to see other rain measurements)
** Current wind speed in m/s (hover to see current wind gust speed)